Location: Pedimozza
(42.0500°N, 9.3500°E)
Time: 02:40:45
(UTC+00:00)

Cosmos 44 Rocket - Pass Details

Date: 19 August 2019
Orbit: 656 x 734 km, 65.1° (Epoch: 23 October)

Event Time Altitude Azimuth Distance (km) Brightness Sun altitude
Rises 20:16:33 0° 330° (NNW) 3,045 7.9 -20.1°
Reaches altitude 10° 20:18:56 10° 334° (NNW) 2,114 6.8 -20.4°
Maximum altitude 20:23:41 59° 54° (NE) 769 3.4 -21.1°
Enters shadow 20:24:32 50° 98° (E) 847 3.4 -21.2°
